Temp
-7 -7 -7 -7 -6 -6 -6 -7 -7 -7 -7 -7 -7 -7 -6 -6 -6 -6 -7 -7 -6 -6 -7 -7 -7 -7 -7 -7 -7 -7 -8 -8 -8 -8 -8 -7 -7 -8 -8 -8 -8 -8 -8 -8 -7 -7 -8 -8 -8 -8 -8 -8 -8 -8 -8 -8 -8 -8 -8 -8 -8 -8 -8
-7 -7 -7 -7 -6 -6 -6 -6 -7 -7 -7 -7 -7 -7 -7 -6 -6 -6 -7 -7 -7 -6 -7 -7 -7 -7 -7 -7 -7 -7 -8 -8 -8 -8 -8 -8 -8 -8 -8 -8 -8 -8 -8 -8 -8 -8 -8 -8 -8 -8 -8 -8 -8 -8 -8 -8 -8 -8 -8 -8 -8 -8 -9
-7 -7 -7 -7 -7 -6 -7 -7 -7 -7 -7 -7 -7 -7 -7 -6 -6 -6 -7 -7 -7 -7 -7 -7 -7 -7 -7 -7 -7 -7 -7 -8 -8 -8 -8 -8 -8 -8 -8 -8 -8 -8 -8 -8 -8 -8 -8 -8 -8 -8 -8 -8 -8 -8 -8 -8 -8 -8 -8 -8 -9 -9 -9
-7 -7 -7 -7 -7 -7 -7 -7 -7 -7 -7 -7 -7 -7 -6 -6 -6 -6 -6 -7 -7 -6 -7 -7 -7 -7 -7 -7 -7 -7 -7 -8 -8 -8 -8 -8 -8 -8 -8 -8 -8 -8 -8 -8 -8 -8 -8 -8 -8 -8 -8 -8 -8 -8 -8 -8 -8 -8 -8 -9 -9 -9 -9
-7 -7 -7 -7 -7 -7 -7 -7 -7 -7 -7 -7 -7 -7 -7 -7 -7 -7 -7 -6 -6 -7 -7 -7 -7 -7 -7 -7 -7 -7 -7 -7 -8 -8 -8 -8 -8 -8 -9 -9 -8 -8 -8 -8 -8 -8 -8 -8 -8 -8 -8 -8 -8 -8 -8 -8 -8 -8 -9 -9 -9 -9 -9
-7 -7 -7 -7 -7 -7 -7 -7 -7 -7 -7 -7 -7 -7 -7 -7 -7 -7 -7 -7 -7 -7 -7 -7 -7 -7 -7 -7 -7 -7 -7 -7 -8 -8 -8 -8 -8 -8 -9 -9 -9 -8 -8 -8 -8 -8 -9 -9 -8 -8 -8 -8 -8 -8 -8 -8 -9 -9 -9 -9 -9 -9 -9
-7 -7 -7 -7 -7 -7 -7 -7 -7 -7 -7 -7 -7 -7 -7 -7 -7 -7 -7 -7 -7 -7 -7 -7 -7 -7 -7 -7 -7 -7 -7 -7 -7 -8 -8 -8 -8 -8 -9 -9 -9 -8 -8 -8 -8 -9 -9 -9 -8 -8 -8 -8 -8 -8 -8 -9 -9 -9 -9 -9 -9 -9 -9
-7 -7 -7 -7 -7 -7 -7 -7 -7 -7 -7 -7 -7 -7 -7 -7 -7 -7 -7 -7 -7 -7 -7 -7 -7 -7 -7 -7 -7 -8 -8 -8 -8 -8 -8 -8 -8 -9 -9 -9 -9 -9 -8 -8 -8 -9 -9 -9 -9 -9 -9 -9 -9 -9 -9 -9 -9 -9 -9 -9 -9 -9 -9
-7 -7 -8 -7 -7 -7 -7 -7 -7 -7 -7 -7 -7 -7 -7 -7 -7 -7 -7 -7 -7 -7 -7 -7 -7 -7 -7 -7 -8 -8 -8 -8 -8 -8 -8 -9 -9 -9 -9 -9 -9 -9 -8 -8 -8 -9 -9 -9 -9 -9 -9 -9 -9 -9 -9 -9 -9 -9 -9 -9 -9 -10 -10
-7 -8 -8 -7 -7 -7 -7 -7 -7 -7 -7 -7 -7 -7 -7 -7 -7 -7 -7 -7 -7 -7 -7 -8 -7 -7 -8 -8 -8 -8 -8 -8 -8 -8 -8 -9 -9 -9 -9 -9 -9 -9 -9 -8 -9 -9 -9 -9 -9 -9 -9 -9 -9 -9 -9 -9 -9 -9 -9 -9 -10 -10 -10
-7 -7 -7 -7 -7 -7 -7 -7 -7 -7 -7 -7 -7 -7 -6 -6 -6 -6 -7 -7 -7 -7 -8 -8 -8 -8 -8 -8 -8 -8 -8 -8 -8 -8 -9 -9 -9 -9 -9 -9 -9 -9 -9 -9 -9 -9 -9 -9 -9 -9 -9 -9 -9 -9 -9 -9 -9 -9 -9 -10 -10 -10 -10
-7 -7 -7 -7 -7 -7 -7 -7 -7 -7 -7 -7 -7 -7 -6 -6 -6 -6 -7 -7 -7 -8 -8 -8 -8 -8 -8 -8 -8 -8 -8 -8 -8 -8 -9 -9 -9 -9 -9 -9 -9 -9 -9 -9 -9 -9 -9 -9 -9 -9 -9 -9 -9 -9 -9 -9 -9 -10 -10 -10 -10 -10 -10
-7 -7 -7 -7 -7 -7 -7 -7 -7 -7 -7 -7 -7 -7 -6 -6 -6 -6 -7 -7 -7 -8 -8 -8 -8 -8 -8 -8 -8 -8 -8 -8 -8 -8 -9 -9 -9 -9 -9 -9 -9 -9 -9 -9 -9 -9 -9 -9 -9 -9 -9 -9 -9 -9 -9 -9 -10 -10 -10 -10 -10 -10 -10
-7 -7 -7 -7 -7 -8 -8 -8 -8 -7 -7 -7 -7 -7 -7 -6 -6 -6 -7 -7 -7 -8 -8 -8 -8 -8 -8 -8 -8 -8 -8 -8 -8 -8 -9 -9 -9 -9 -9 -9 -9 -9 -9 -9 -9 -9 -9 -9 -9 -9 -9 -9 -9 -9 -9 -10 -10 -10 -10 -10 -10 -10 -10
-7 -7 -8 -8 -8 -8 -8 -8 -8 -8 -7 -7 -7 -7 -7 -6 -6 -6 -7 -7 -7 -8 -8 -8 -8 -8 -8 -8 -8 -8 -8 -8 -8 -9 -9 -9 -9 -9 -9 -9 -9 -9 -9 -9 -9 -9 -9 -10 -10 -10 -9 -9 -9 -10 -10 -10 -10 -10 -10 -10 -11 -11 -11
-7 -7 -7 -8 -8 -8 -8 -8 -8 -8 -7 -7 -7 -7 -7 -6 -6 -6 -6 -7 -7 -7 -8 -8 -8 -8 -8 -8 -8 -9 -9 -8 -9 -9 -9 -9 -9 -9 -9 -9 -9 -9 -9 -9 -9 -10 -10 -10 -10 -10 -10 -10 -10 -10 -10 -10 -10 -11 -11 -11 -11 -11 -11
-8 -8 -8 -8 -8 -8 -8 -7 -8 -8 -8 -8 -7 -7 -7 -7 -6 -6 -6 -6 -7 -7 -7 -8 -8 -8 -8 -9 -9 -9 -9 -9 -9 -9 -9 -9 -9 -9 -9 -9 -9 -9 -9 -9 -10 -10 -10 -10 -10 -10 -10 -10 -10 -11 -10 -11 -11 -11 -11 -11 -11 -11 -11
-8 -8 -8 -8 -8 -8 -8 -8 -8 -7 -8 -8 -8 -7 -7 -7 -7 -7 -6 -6 -6 -7 -7 -8 -8 -8 -9 -9 -9 -9 -9 -9 -9 -9 -9 -9 -9 -9 -9 -9 -9 -9 -9 -9 -10 -10 -10 -10 -10 -10 -11 -11 -11 -11 -11 -11 -11 -11 -11 -11 -11 -11 -12
-8 -8 -8 -8 -8 -8 -8 -8 -8 -7 -7 -7 -7 -7 -7 -7 -7 -7 -7 -7 -7 -7 -7 -8 -8 -8 -9 -9 -9 -9 -9 -9 -9 -9 -9 -9 -9 -9 -9 -9 -9 -9 -9 -9 -10 -10 -10 -10 -10 -10 -11 -11 -11 -11 -12 -12 -12 -12 -12 -12 -12 -12 -12
-8 -8 -8 -8 -8 -8 -8 -8 -8 -8 -7 -7 -7 -7 -7 -7 -7 -7 -7 -7 -7 -7 -7 -8 -8 -8 -9 -9 -9 -9 -9 -9 -9 -9 -9 -9 -9 -9 -9 -9 -9 -9 -9 -10 -10 -10 -10 -10 -10 -11 -11 -11 -11 -12 -12 -12 -12 -12 -12 -12 -12 -12 -12
-8 -8 -8 -8 -8 -8 -8 -8 -8 -7 -7 -7 -7 -7 -7 -7 -7 -7 -7 -8 -8 -8 -8 -8 -8 -9 -9 -9 -9 -9 -9 -9 -9 -9 -10 -10 -9 -9 -9 -9 -10 -10 -10 -10 -10 -10 -10 -11 -11 -11 -11 -11 -11 -12 -12 -12 -12 -13 -12 -12 -12 -12 -12
-8 -8 -8 -8 -8 -8 -8 -8 -8 -7 -7 -7 -7 -7 -7 -7 -8 -8 -8 -8 -8 -8 -8 -8 -9 -9 -9 -9 -9 -9 -9 -9 -9 -10 -10 -10 -9 -9 -9 -10 -10 -10 -10 -10 -10 -11 -11 -11 -11 -11 -11 -11 -12 -12 -12 -12 -12 -13 -13 -12 -12 -12 -12
-8 -8 -8 -8 -8 -8 -8 -7 -7 -7 -7 -7 -7 -7 -7 -8 -8 -8 -8 -8 -8 -8 -8 -9 -9 -9 -9 -9 -10 -10 -10 -10 -10 -10 -10 -10 -9 -9 -10 -10 -10 -10 -10 -11 -11 -11 -11 -11 -11 -11 -11 -11 -12 -12 -12 -12 -12 -13 -13 -13 -12 -12 -12
-8 -8 -8 -8 -9 -8 -8 -8 -8 -8 -7 -8 -8 -8 -8 -8 -8 -8 -8 -8 -8 -9 -9 -9 -9 -10 -10 -10 -10 -10 -10 -10 -10 -10 -10 -10 -9 -10 -10 -10 -10 -11 -11 -11 -11 -11 -11 -11 -11 -11 -11 -11 -12 -12 -12 -12 -12 -13 -13 -13 -13 -13 -13
-8 -8 -9 -9 -9 -8 -8 -8 -8 -8 -8 -8 -8 -8 -8 -8 -8 -8 -8 -9 -9 -9 -9 -9 -10 -10 -10 -10 -10 -10 -10 -10 -10 -10 -10 -10 -10 -10 -10 -10 -11 -11 -11 -11 -12 -12 -12 -12 -12 -12 -12 -12 -12 -12 -12 -13 -13 -13 -13 -13 -14 -14 -13
-9 -9 -8 -8 -8 -8 -8 -8 -8 -8 -8 -8 -8 -8 -8 -8 -8 -8 -9 -9 -10 -10 -10 -10 -10 -10 -10 -10 -10 -10 -10 -10 -10 -10 -10 -10 -10 -10 -10 -10 -11 -11 -11 -12 -12 -11 -12 -12 -12 -12 -12 -12 -12 -12 -12 -13 -13 -13 -13 -14 -14 -14 -14
-8 -8 -8 -8 -8 -8 -8 -8 -8 -8 -8 -8 -8 -8 -8 -8 -8 -9 -9 -9 -10 -11 -11 -10 -10 -10 -10 -10 -10 -10 -11 -10 -10 -10 -10 -10 -11 -11 -10 -11 -11 -11 -11 -11 -11 -11 -11 -12 -12 -12 -12 -12 -12 -12 -12 -13 -13 -14 -14 -14 -14 -14 -14
-8 -8 -8 -8 -8 -8 -8 -8 -8 -8 -8 -8 -8 -8 -9 -9 -8 -9 -9 -10 -10 -10 -10 -11 -11 -10 -10 -11 -10 -10 -10 -10 -10 -10 -10 -11 -11 -11 -11 -11 -11 -11 -11 -11 -11 -11 -11 -12 -12 -12 -12 -12 -12 -12 -12 -13 -13 -14 -14 -14 -14 -14 -15
-8 -8 -8 -8 -8 -8 -8 -8 -8 -8 -8 -8 -8 -8 -9 -9 -9 -8 -9 -10 -10 -10 -10 -11 -11 -11 -11 -10 -10 -10 -10 -10 -10 -11 -11 -11 -11 -11 -11 -11 -11 -11 -11 -11 -11 -11 -12 -12 -12 -12 -12 -12 -12 -12 -12 -13 -13 -14 -14 -14 -14 -15 -15
-8 -8 -9 -8 -8 -8 -8 -8 -8 -8 -8 -8 -8 -8 -8 -9 -10 -9 -9 -10 -10 -9 -10 -11 -11 -11 -11 -10 -10 -10 -10 -10 -11 -11 -11 -11 -11 -11 -11 -11 -11 -11 -11 -11 -11 -12 -12 -12 -12 -12 -12 -12 -12 -12 -12 -13 -13 -13 -14 -14 -15 -15 -15
-9 -9 -9 -9 -9 -9 -9 -9 -9 -9 -8 -8 -8 -8 -8 -9 -9 -9 -9 -10 -10 -9 -10 -11 -11 -11 -11 -10 -10 -10 -10 -10 -11 -11 -11 -11 -11 -11 -11 -11 -11 -11 -11 -12 -12 -12 -12 -12 -12 -12 -12 -12 -12 -12 -13 -13 -13 -13 -14 -14 -15 -15 -15
-9 -9 -9 -9 -9 -9 -9 -9 -9 -9 -9 -8 -8 -8 -8 -9 -9 -10 -10 -10 -10 -10 -10 -10 -11 -11 -11 -11 -11 -11 -11 -11 -11 -11 -11 -11 -11 -11 -11 -11 -12 -12 -12 -12 -12 -12 -12 -12 -12 -12 -12 -12 -13 -13 -13 -13 -13 -14 -14 -14 -15 -15 -15
-9 -9 -9 -9 -9 -9 -9 -9 -9 -9 -9 -9 -9 -8 -8 -9 -9 -10 -10 -10 -10 -10 -10 -10 -11 -11 -11 -11 -11 -11 -11 -11 -11 -11 -11 -11 -11 -12 -12 -12 -12 -12 -13 -13 -13 -12 -12 -12 -12 -13 -13 -13 -13 -13 -13 -13 -14 -14 -14 -15 -15 -15 -15
-9 -9 -9 -9 -9 -9 -9 -9 -9 -9 -9 -9 -9 -9 -9 -9 -9 -10 -10 -10 -10 -10 -10 -10 -10 -11 -11 -11 -11 -11 -11 -11 -11 -12 -12 -12 -12 -12 -12 -12 -12 -12 -13 -13 -12 -13 -13 -13 -13 -13 -13 -13 -13 -13 -14 -14 -14 -14 -15 -15 -15 -15 -15
-10 -9 -9 -9 -9 -9 -9 -9 -9 -9 -9 -9 -9 -9 -9 -9 -9 -10 -10 -10 -10 -10 -10 -10 -10 -10 -11 -11 -11 -11 -11 -12 -12 -12 -12 -12 -12 -13 -12 -12 -12 -12 -12 -12 -13 -13 -13 -13 -13 -13 -13 -13 -13 -14 -14 -14 -14 -15 -15 -15 -15 -15 -15
-10 -10 -10 -10 -10 -9 -9 -9 -9 -9 -9 -9 -9 -10 -10 -9 -9 -10 -10 -10 -10 -10 -11 -11 -11 -11 -11 -11 -12 -12 -12 -12 -13 -13 -13 -13 -13 -13 -12 -12 -12 -12 -13 -13 -13 -13 -13 -13 -13 -13 -14 -14 -14 -14 -14 -15 -15 -15 -15 -15 -16 -16 -16
-10 -10 -10 -10 -10 -10 -10 -10 -10 -9 -9 -9 -9 -10 -10 -10 -10 -10 -10 -10 -10 -11 -11 -11 -12 -12 -12 -12 -12 -12 -13 -13 -13 -13 -13 -13 -13 -13 -13 -13 -13 -13 -13 -13 -13 -13 -13 -13 -14 -14 -14 -14 -14 -15 -15 -15 -15 -15 -15 -16 -16 -16 -16
-10 -10 -10 -10 -10 -10 -10 -10 -10 -10 -9 -9 -10 -10 -10 -10 -10 -10 -10 -10 -11 -11 -11 -11 -12 -12 -12 -12 -12 -13 -13 -13 -13 -13 -13 -13 -13 -13 -13 -13 -13 -13 -13 -14 -14 -14 -14 -14 -14 -14 -14 -15 -15 -15 -15 -15 -15 -15 -15 -16 -16 -16 -16
Height
5920 5920 5920 5921 5921 5921 5921 5920 5919 5918 5917 5917 5917 5917 5916 5916 5915 5915 5914 5913 5912 5912 5911 5911 5910 5909 5909 5909 5908 5907 5906 5905 5904 5904 5902 5901 5899 5898 5896 5895 5894 5892 5891 5889 5887 5886 5884 5883 5881 5880 5878 5876 5875 5873 5871 5869 5867 5865 5862 5860 5858 5855 5853
5917 5917 5917 5917 5918 5918 5918 5917 5917 5916 5915 5914 5914 5914 5913 5913 5912 5912 5911 5910 5910 5909 5909 5908 5907 5907 5906 5906 5905 5904 5903 5902 5901 5901 5899 5898 5896 5895 5894 5892 5891 5889 5888 5886 5884 5882 5881 5879 5878 5876 5874 5873 5871 5870 5868 5866 5864 5861 5859 5857 5854 5852 5850
5914 5915 5915 5914 5914 5914 5915 5914 5914 5913 5913 5912 5911 5911 5910 5910 5910 5909 5909 5908 5907 5907 5906 5905 5904 5904 5904 5903 5902 5901 5900 5899 5898 5897 5896 5895 5894 5892 5891 5890 5888 5886 5885 5883 5881 5879 5877 5876 5874 5872 5871 5869 5868 5866 5865 5863 5860 5858 5855 5853 5851 5849 5846
5912 5912 5911 5910 5910 5911 5912 5912 5912 5910 5910 5909 5908 5908 5907 5907 5907 5906 5906 5906 5905 5904 5904 5903 5902 5901 5901 5900 5899 5898 5897 5896 5895 5894 5893 5892 5891 5890 5889 5887 5886 5884 5882 5880 5878 5876 5874 5872 5871 5869 5868 5866 5865 5863 5861 5859 5857 5854 5852 5849 5847 5845 5842
5909 5908 5907 5907 5908 5908 5909 5909 5909 5908 5907 5906 5905 5905 5905 5905 5904 5904 5903 5903 5903 5902 5901 5901 5900 5899 5898 5898 5897 5896 5895 5893 5892 5891 5890 5889 5889 5888 5887 5885 5883 5881 5879 5877 5875 5873 5871 5869 5867 5866 5865 5863 5862 5860 5858 5856 5853 5850 5847 5845 5843 5841 5838
5905 5904 5904 5905 5905 5905 5906 5906 5906 5905 5904 5903 5902 5902 5902 5902 5902 5901 5901 5900 5900 5900 5899 5898 5898 5897 5896 5895 5895 5893 5892 5890 5889 5888 5887 5886 5886 5885 5884 5882 5880 5878 5876 5873 5871 5869 5867 5866 5864 5862 5861 5860 5858 5856 5854 5852 5849 5847 5844 5842 5839 5837 5834
5900 5900 5901 5902 5903 5903 5903 5903 5903 5902 5902 5901 5900 5900 5900 5900 5899 5899 5898 5898 5897 5897 5897 5896 5895 5894 5893 5892 5892 5890 5889 5888 5887 5885 5884 5883 5882 5881 5880 5878 5876 5874 5872 5870 5868 5865 5864 5862 5860 5859 5857 5856 5854 5852 5850 5848 5846 5844 5841 5838 5835 5832 5830
5898 5898 5899 5900 5901 5901 5901 5900 5900 5900 5899 5899 5899 5898 5898 5897 5897 5897 5896 5895 5894 5894 5894 5893 5892 5891 5890 5889 5888 5887 5886 5885 5884 5882 5880 5879 5879 5878 5877 5875 5872 5871 5868 5866 5864 5862 5860 5859 5857 5855 5853 5851 5850 5848 5846 5844 5842 5839 5836 5833 5830 5828 5826
5896 5896 5897 5898 5899 5899 5898 5897 5897 5896 5896 5896 5896 5895 5895 5895 5894 5894 5893 5892 5891 5891 5890 5889 5889 5888 5887 5886 5884 5883 5883 5882 5880 5878 5877 5876 5876 5874 5873 5871 5869 5867 5864 5862 5861 5859 5857 5855 5853 5851 5849 5848 5846 5844 5842 5840 5837 5834 5832 5829 5827 5824 5822
5894 5894 5894 5894 5895 5896 5895 5894 5893 5893 5893 5893 5893 5893 5893 5892 5891 5891 5890 5888 5888 5887 5887 5886 5885 5884 5883 5882 5881 5880 5879 5877 5876 5875 5874 5873 5872 5871 5869 5867 5865 5863 5861 5859 5857 5855 5854 5852 5850 5848 5846 5844 5842 5840 5838 5835 5833 5830 5828 5825 5823 5820 5817
5892 5892 5891 5891 5891 5891 5892 5891 5891 5891 5891 5891 5891 5890 5890 5889 5888 5888 5886 5885 5884 5884 5883 5882 5882 5880 5879 5877 5877 5876 5874 5873 5873 5872 5871 5870 5868 5867 5865 5863 5861 5859 5857 5855 5854 5852 5850 5848 5846 5844 5842 5840 5838 5836 5833 5831 5829 5826 5823 5820 5818 5815 5813
5891 5890 5889 5889 5888 5888 5889 5890 5889 5889 5889 5888 5888 5888 5887 5886 5885 5884 5883 5882 5881 5880 5880 5879 5878 5877 5875 5873 5873 5872 5871 5870 5870 5869 5867 5866 5864 5863 5861 5859 5857 5855 5853 5852 5850 5848 5846 5844 5842 5840 5838 5836 5834 5832 5829 5827 5824 5821 5818 5816 5813 5811 5808
5889 5888 5887 5886 5885 5886 5886 5887 5887 5887 5886 5886 5885 5885 5884 5883 5882 5881 5879 5878 5877 5877 5876 5875 5874 5873 5871 5869 5869 5868 5867 5867 5866 5865 5863 5862 5860 5859 5857 5856 5854 5851 5850 5848 5846 5843 5841 5839 5837 5835 5833 5832 5830 5828 5825 5822 5820 5817 5814 5812 5809 5806 5804
5886 5885 5884 5883 5883 5883 5883 5884 5884 5884 5883 5883 5882 5881 5880 5879 5878 5877 5876 5874 5873 5873 5872 5871 5870 5868 5867 5866 5866 5865 5864 5862 5861 5861 5859 5858 5857 5855 5853 5851 5849 5847 5845 5843 5841 5838 5836 5834 5832 5831 5829 5827 5825 5823 5820 5818 5815 5813 5810 5807 5805 5802 5800
5882 5882 5881 5880 5880 5881 5881 5881 5881 5880 5880 5878 5877 5877 5876 5875 5874 5873 5872 5870 5869 5869 5868 5866 5865 5864 5864 5863 5862 5861 5859 5858 5857 5857 5856 5855 5853 5851 5849 5847 5845 5843 5841 5838 5835 5833 5831 5829 5828 5826 5824 5822 5820 5817 5815 5813 5810 5808 5805 5803 5800 5798 5795
5878 5879 5880 5879 5879 5878 5878 5878 5878 5878 5877 5875 5874 5873 5872 5871 5870 5869 5868 5867 5866 5865 5864 5862 5861 5861 5860 5859 5857 5855 5854 5854 5853 5853 5852 5850 5849 5847 5845 5843 5841 5839 5836 5833 5831 5829 5827 5825 5824 5822 5819 5817 5814 5813 5811 5808 5806 5803 5801 5798 5796 5794 5791
5874 5876 5877 5877 5876 5876 5875 5875 5875 5874 5873 5872 5871 5869 5868 5867 5866 5865 5864 5863 5862 5861 5859 5857 5857 5856 5856 5855 5853 5851 5851 5850 5850 5849 5847 5846 5844 5843 5841 5839 5837 5834 5831 5829 5827 5825 5824 5822 5819 5817 5814 5811 5809 5807 5805 5803 5801 5798 5796 5793 5791 5789 5787
5870 5872 5872 5872 5872 5872 5872 5871 5871 5870 5869 5869 5867 5866 5865 5863 5861 5860 5859 5858 5857 5856 5855 5853 5852 5852 5851 5850 5848 5848 5847 5846 5846 5845 5843 5842 5840 5839 5837 5834 5832 5829 5826 5824 5822 5821 5820 5819 5815 5812 5810 5807 5803 5801 5800 5798 5796 5793 5790 5789 5787 5785 5783
5866 5866 5866 5866 5866 5867 5867 5867 5867 5866 5865 5864 5863 5862 5861 5859 5857 5855 5854 5853 5853 5852 5850 5849 5847 5847 5847 5846 5845 5844 5843 5842 5841 5840 5839 5837 5836 5834 5832 5829 5826 5823 5821 5818 5817 5817 5816 5814 5811 5808 5805 5802 5798 5795 5793 5792 5790 5788 5786 5784 5783 5781 5778
5860 5860 5860 5860 5861 5861 5862 5863 5863 5863 5862 5860 5859 5858 5856 5854 5853 5851 5849 5848 5847 5846 5845 5844 5843 5843 5843 5842 5841 5840 5838 5838 5838 5836 5834 5832 5830 5829 5826 5823 5821 5818 5815 5813 5813 5811 5810 5807 5805 5802 5800 5797 5793 5790 5788 5786 5785 5783 5781 5780 5778 5776 5774
5856 5856 5856 5857 5858 5858 5857 5857 5858 5859 5857 5856 5854 5853 5852 5850 5848 5846 5844 5843 5842 5841 5840 5838 5837 5837 5837 5837 5837 5835 5834 5834 5833 5831 5829 5827 5825 5823 5820 5818 5816 5813 5811 5809 5808 5806 5803 5801 5799 5797 5795 5792 5788 5786 5783 5780 5779 5777 5776 5775 5773 5771 5769
5853 5854 5854 5855 5855 5855 5854 5853 5853 5853 5852 5850 5849 5848 5846 5845 5843 5840 5839 5838 5837 5836 5834 5832 5831 5831 5831 5831 5831 5831 5830 5830 5828 5825 5823 5821 5819 5817 5815 5813 5811 5808 5806 5804 5802 5800 5799 5797 5795 5793 5790 5786 5783 5781 5778 5775 5773 5771 5770 5769 5769 5767 5765
5851 5852 5852 5852 5852 5851 5849 5849 5848 5848 5846 5845 5843 5842 5840 5838 5837 5835 5833 5833 5832 5831 5829 5827 5825 5825 5826 5826 5826 5826 5826 5824 5821 5819 5817 5815 5814 5812 5810 5808 5806 5804 5801 5799 5797 5795 5794 5792 5790 5787 5783 5780 5778 5777 5775 5771 5768 5766 5765 5765 5765 5763 5761
5849 5849 5849 5849 5848 5847 5846 5845 5844 5843 5841 5840 5839 5837 5834 5831 5830 5829 5827 5826 5825 5825 5824 5823 5821 5820 5821 5821 5821 5821 5819 5816 5814 5813 5811 5810 5809 5808 5805 5803 5801 5799 5797 5794 5793 5791 5789 5787 5784 5781 5777 5774 5772 5773 5772 5768 5765 5763 5761 5761 5760 5758 5756
5846 5846 5845 5845 5845 5844 5843 5841 5840 5838 5837 5836 5834 5831 5828 5826 5825 5822 5819 5817 5818 5819 5819 5818 5817 5816 5816 5816 5815 5814 5812 5810 5809 5808 5807 5806 5805 5803 5800 5798 5797 5796 5794 5791 5789 5788 5786 5783 5780 5777 5775 5772 5769 5768 5767 5764 5761 5759 5757 5755 5754 5752 5751
5842 5842 5841 5840 5840 5840 5839 5838 5836 5835 5833 5832 5830 5827 5823 5821 5818 5812 5808 5807 5809 5811 5812 5812 5811 5811 5811 5810 5809 5808 5807 5806 5805 5804 5803 5802 5800 5798 5796 5794 5793 5791 5789 5787 5786 5784 5782 5780 5777 5774 5773 5770 5766 5763 5762 5758 5756 5754 5752 5750 5748 5747 5745
5837 5837 5836 5836 5835 5835 5834 5833 5832 5831 5829 5827 5825 5821 5818 5816 5813 5808 5806 5805 5803 5803 5804 5805 5805 5805 5805 5804 5804 5804 5803 5802 5802 5801 5800 5798 5796 5794 5792 5790 5789 5787 5785 5783 5781 5780 5777 5775 5773 5770 5767 5765 5761 5759 5757 5754 5752 5749 5746 5744 5742 5741 5740
5832 5831 5831 5830 5830 5830 5829 5828 5827 5826 5824 5821 5819 5816 5813 5812 5811 5808 5807 5807 5802 5796 5797 5800 5800 5800 5800 5801 5801 5800 5799 5799 5798 5797 5796 5794 5791 5790 5788 5786 5784 5782 5781 5779 5777 5775 5773 5770 5767 5764 5761 5758 5755 5754 5752 5750 5748 5745 5741 5738 5736 5735 5735
5826 5826 5825 5825 5825 5825 5824 5823 5821 5820 5818 5815 5813 5810 5808 5808 5806 5803 5802 5802 5797 5793 5794 5795 5794 5795 5796 5797 5797 5797 5795 5794 5794 5792 5791 5789 5787 5785 5784 5782 5781 5778 5776 5775 5772 5770 5767 5764 5761 5758 5756 5753 5750 5748 5746 5744 5742 5739 5736 5733 5731 5729 5728
5820 5820 5820 5819 5818 5818 5818 5818 5816 5814 5812 5810 5808 5806 5803 5801 5800 5798 5796 5794 5791 5790 5790 5790 5790 5791 5792 5793 5793 5792 5791 5789 5788 5787 5786 5784 5782 5781 5780 5778 5776 5774 5772 5770 5767 5764 5761 5758 5755 5753 5750 5747 5745 5742 5740 5737 5735 5732 5729 5727 5724 5723 5722
5814 5814 5814 5813 5813 5812 5812 5811 5810 5809 5807 5805 5804 5802 5799 5797 5795 5794 5791 5789 5787 5785 5784 5785 5785 5786 5787 5788 5788 5787 5786 5784 5782 5781 5781 5780 5778 5777 5775 5773 5771 5768 5766 5764 5761 5758 5755 5752 5749 5747 5744 5742 5739 5736 5734 5732 5729 5726 5723 5720 5718 5716 5715
5808 5808 5808 5807 5807 5806 5805 5805 5804 5803 5802 5801 5800 5798 5796 5793 5792 5790 5787 5784 5782 5780 5780 5780 5780 5780 5781 5783 5783 5782 5780 5778 5777 5776 5775 5774 5773 5770 5768 5766 5764 5761 5759 5757 5754 5751 5748 5745 5743 5740 5738 5736 5734 5731 5728 5726 5723 5720 5717 5714 5712 5711 5709
5802 5802 5802 5801 5801 5800 5800 5799 5798 5796 5795 5795 5795 5794 5792 5790 5788 5787 5786 5784 5780 5776 5776 5777 5776 5775 5775 5776 5777 5776 5775 5773 5771 5771 5770 5768 5766 5763 5761 5759 5757 5755 5752 5749 5746 5744 5741 5739 5736 5735 5733 5731 5729 5726 5723 5720 5717 5714 5711 5709 5707 5705 5703
5797 5797 5796 5795 5795 5794 5794 5793 5792 5791 5789 5789 5789 5788 5787 5786 5784 5783 5784 5783 5779 5774 5773 5774 5772 5770 5769 5770 5770 5770 5769 5767 5766 5766 5764 5762 5760 5758 5756 5754 5752 5749 5746 5743 5741 5738 5736 5734 5732 5730 5728 5726 5723 5720 5717 5714 5711 5708 5706 5703 5701 5700 5699
5791 5791 5791 5790 5790 5789 5788 5788 5787 5785 5784 5783 5783 5783 5782 5781 5779 5778 5778 5777 5774 5772 5771 5770 5768 5767 5766 5765 5765 5764 5762 5761 5761 5759 5758 5756 5754 5752 5750 5749 5746 5744 5741 5738 5736 5734 5731 5729 5727 5725 5723 5720 5717 5714 5711 5708 5705 5702 5700 5697 5695 5695 5694
5785 5785 5785 5785 5784 5784 5783 5782 5782 5781 5779 5777 5777 5778 5777 5775 5773 5772 5771 5769 5768 5767 5766 5763 5762 5761 5760 5759 5758 5757 5756 5755 5754 5753 5751 5749 5747 5745 5744 5742 5740 5738 5735 5733 5730 5728 5726 5723 5721 5718 5715 5713 5710 5708 5705 5702 5699 5697 5694 5692 5689 5687 5686
5780 5780 5780 5779 5779 5778 5777 5777 5776 5775 5774 5773 5772 5771 5770 5769 5768 5767 5765 5764 5762 5762 5759 5756 5755 5754 5753 5753 5752 5751 5750 5749 5748 5746 5745 5743 5741 5739 5737 5735 5733 5731 5729 5727 5724 5722 5720 5718 5715 5712 5709 5706 5704 5702 5700 5697 5694 5692 5689 5687 5684 5682 5680
5774 5774 5774 5774 5773 5772 5772 5771 5770 5769 5769 5768 5767 5765 5764 5763 5761 5760 5760 5759 5758 5757 5754 5751 5749 5748 5748 5747 5746 5745 5744 5743 5742 5740 5739 5737 5735 5732 5730 5728 5726 5724 5723 5721 5719 5717 5714 5712 5709 5706 5703 5701 5698 5696 5694 5692 5690 5687 5684 5682 5680 5677 5675
Wind_Speed
16 15 15 14 13 13 14 15 16 16 17 18 19 21 22 22 21 21 21 22 21 22 21 21 20 20 19 19 19 19 19 20 22 24 25 26 26 26 26 27 27 29 30 31 32 31 30 29 28 28 28 29 30 31 32 32 33 34 35 36 37 37 38
17 17 17 15 12 11 11 13 14 14 15 17 18 19 21 21 20 20 21 21 20 20 20 20 19 18 18 18 18 19 20 21 22 23 25 26 27 27 27 27 27 28 30 31 31 31 31 30 29 28 29 30 31 32 32 33 34 35 36 37 37 38 38
17 16 16 14 10 8 10 12 13 14 15 16 18 19 19 20 20 21 22 21 21 20 20 20 19 19 19 19 19 19 20 21 22 23 24 25 27 27 27 26 27 28 29 30 30 30 30 30 29 29 29 31 32 32 33 33 35 36 37 37 38 38 38
17 17 16 14 12 13 16 17 15 15 16 17 19 20 19 19 21 22 23 23 22 21 21 20 20 20 20 20 20 20 21 21 22 23 24 25 26 26 26 26 27 27 28 29 29 29 29 29 29 29 30 32 33 33 33 34 36 37 38 38 38 38 39
20 19 19 18 17 19 22 21 18 17 18 19 20 20 20 20 21 22 24 24 23 22 22 22 21 21 22 21 21 22 22 23 23 24 24 25 25 25 25 26 27 27 28 29 29 29 29 29 30 31 31 32 33 33 34 35 37 38 39 39 39 39 39
22 22 23 23 23 24 25 23 21 18 18 20 21 21 20 19 21 22 23 24 23 23 23 23 23 24 25 24 22 23 24 24 24 24 24 25 26 26 26 27 28 28 29 29 29 29 29 30 31 32 33 33 33 34 34 36 37 38 38 39 38 38 38
24 25 26 26 26 26 25 22 21 18 17 18 19 19 19 19 20 22 23 24 23 23 22 23 24 26 27 26 25 25 25 25 25 25 25 25 25 26 27 27 28 29 29 29 29 29 30 31 32 33 33 34 34 35 35 36 36 37 38 38 38 39 39
26 27 27 27 26 24 23 21 20 18 17 17 17 17 18 19 20 22 23 24 24 23 23 24 25 26 28 28 27 27 27 26 26 26 26 25 25 27 28 28 28 29 30 29 29 30 31 32 32 33 34 34 34 35 36 37 37 38 38 39 40 40 40
27 28 28 29 27 24 22 21 20 19 17 16 16 16 18 19 21 22 24 25 25 24 25 26 26 27 28 28 28 28 28 27 27 27 27 25 25 27 29 30 30 30 30 30 30 30 31 32 33 33 34 34 34 35 36 38 39 40 40 40 40 41 40
28 29 31 31 30 26 22 19 18 17 16 15 15 16 17 19 21 22 24 25 26 26 27 27 27 27 27 28 27 28 29 29 28 27 26 25 25 28 30 31 31 31 31 31 31 31 31 32 33 34 34 34 35 36 37 38 39 40 41 41 41 41 41
29 31 32 32 30 27 21 16 15 15 15 15 16 16 18 19 21 22 23 25 26 27 28 28 27 27 27 27 27 28 29 29 28 27 26 25 26 28 30 31 31 31 31 31 31 32 32 33 34 34 34 35 35 37 38 39 39 40 41 42 42 41 41
28 31 31 29 27 26 21 15 14 15 15 16 17 18 19 21 22 22 23 25 26 27 27 27 26 26 27 27 27 28 29 29 28 28 27 26 27 29 31 31 31 31 32 32 33 33 34 34 34 34 35 35 36 38 39 39 40 41 41 42 42 41 41
29 29 29 28 28 26 21 16 14 15 16 18 19 19 21 22 23 23 24 25 26 26 26 26 26 27 28 28 27 27 27 27 27 27 27 27 28 31 32 32 33 33 33 34 34 34 35 35 35 35 35 36 38 39 40 41 41 41 41 41 41 41 41
31 31 29 26 24 23 20 19 19 19 19 20 20 21 22 23 24 25 25 26 26 25 26 26 27 28 29 28 27 26 26 26 27 26 26 27 30 32 32 32 33 34 35 34 34 35 35 35 35 35 36 38 40 41 41 41 42 41 40 40 40 41 41
32 31 26 22 22 24 25 25 25 24 24 24 24 25 25 25 25 25 26 26 26 26 26 28 29 29 28 27 26 25 25 26 26 26 27 28 30 31 31 32 34 35 35 35 35 35 36 35 35 36 38 40 41 42 41 42 42 41 41 41 40 40 39
33 30 27 26 28 32 34 32 29 27 26 27 28 29 29 28 27 26 26 27 27 27 27 29 29 28 27 25 25 25 26 26 27 27 29 29 30 31 32 33 35 35 35 35 36 36 36 36 36 38 40 42 43 42 42 42 42 42 41 40 40 39 39
36 34 32 30 30 31 33 34 32 29 28 28 30 32 32 31 29 28 28 28 28 28 29 29 28 27 25 24 25 26 27 27 28 28 29 30 31 32 33 35 36 36 36 36 37 36 36 36 38 40 42 44 45 45 44 44 43 43 42 40 39 39 39
39 37 34 32 31 32 34 34 34 33 31 31 32 33 33 32 31 30 29 29 29 29 30 29 28 26 26 26 27 28 28 29 29 28 29 30 31 33 34 36 37 37 38 38 38 37 36 37 40 43 44 46 49 49 48 47 45 44 43 40 38 38 39
42 39 36 35 36 39 40 37 34 34 35 34 34 34 34 33 33 32 31 30 30 30 30 31 30 29 27 27 27 27 28 29 29 29 30 31 33 34 35 37 38 39 40 41 40 39 38 40 44 46 48 50 52 52 52 51 48 46 42 39 37 37 38
41 39 38 39 41 44 44 38 34 35 36 35 36 37 37 35 35 34 33 32 31 31 32 32 32 30 28 28 28 29 28 28 29 30 31 33 34 35 36 37 38 39 41 42 41 41 42 44 45 46 46 47 46 46 48 49 49 45 41 38 36 36 37
39 39 41 43 45 46 44 42 41 41 39 38 39 38 37 37 36 35 35 33 32 32 32 33 33 32 30 30 30 30 29 28 29 30 32 33 34 35 37 38 38 39 41 41 41 41 42 43 44 43 43 42 40 42 46 49 48 43 39 37 35 34 35
41 42 44 46 46 45 45 46 46 44 41 41 41 40 39 38 37 37 36 35 34 33 33 34 35 33 32 32 31 30 29 28 29 31 32 33 34 36 37 38 38 39 40 40 40 40 42 45 45 45 46 44 41 43 49 50 45 39 36 35 33 32 34
44 44 46 46 44 43 43 43 42 42 42 43 42 41 41 40 38 38 38 37 36 35 35 36 36 34 31 30 29 28 28 28 29 31 32 33 35 36 38 39 39 39 39 39 40 42 46 48 48 47 47 45 42 43 46 44 39 34 32 31 30 31 33
45 45 45 43 39 38 40 41 41 42 42 43 42 41 42 42 41 41 41 40 38 37 36 36 36 34 31 30 29 28 28 28 29 31 33 34 36 37 39 40 39 38 39 41 43 46 48 49 49 48 47 44 43 43 43 40 34 28 26 27 29 31 33
44 44 44 42 39 39 40 41 41 40 40 40 40 41 44 44 45 47 48 45 40 36 36 36 34 32 31 30 29 29 29 29 30 33 35 36 37 38 40 41 41 39 40 43 44 46 47 48 49 49 46 43 44 46 45 39 32 27 27 28 30 33 35
46 47 48 48 46 44 40 39 38 38 38 38 40 43 44 45 49 53 53 48 41 36 35 36 33 31 31 30 30 29 29 30 32 34 36 37 38 39 40 41 42 41 42 43 44 46 48 48 50 50 47 45 47 49 47 40 35 34 34 33 32 37 38
54 55 55 53 49 43 39 37 37 38 38 39 41 43 42 42 45 48 47 44 40 37 36 35 33 31 32 31 29 29 30 33 35 36 36 37 37 38 40 40 41 41 42 43 44 47 50 51 51 50 49 48 49 49 46 39 38 38 36 33 37 44 43
55 56 55 49 42 37 36 37 38 38 39 40 41 43 42 38 38 40 40 36 32 33 34 34 32 31 31 29 28 30 33 35 36 36 36 37 37 38 40 40 40 41 41 43 46 50 52 53 52 51 50 50 51 51 48 43 42 42 41 43 49 51 46
53 52 49 43 37 35 35 36 37 38 39 40 41 42 42 36 34 36 34 32 30 28 29 30 30 29 27 26 28 32 36 37 37 37 37 37 38 39 39 39 39 41 42 45 49 52 53 53 52 52 52 52 52 52 51 49 47 47 48 52 55 52 47
53 48 42 38 37 36 35 35 36 36 37 39 39 41 41 38 35 32 27 35 35 28 23 24 26 23 21 22 26 30 36 39 38 38 38 38 39 39 38 39 40 43 45 48 51 53 53 53 53 53 54 54 54 53 53 52 52 51 52 52 52 51 48
44 40 38 37 38 37 36 34 34 34 34 35 36 38 40 40 38 33 28 39 38 26 21 21 20 18 22 30 30 30 34 38 38 38 38 38 38 39 40 42 44 46 48 50 52 52 52 52 53 54 54 55 55 55 55 55 54 54 54 53 52 50 47
33 33 34 34 34 34 34 33 32 32 33 34 34 35 38 38 37 35 31 41 41 33 29 26 22 21 30 36 33 31 32 36 38 38 38 37 39 41 44 46 48 49 50 51 51 52 52 53 54 55 55 55 55 56 56 56 56 55 54 52 51 49 45
30 30 30 31 32 32 32 32 33 34 34 34 34 34 35 36 36 34 31 35 39 35 29 27 28 33 40 41 38 36 34 34 37 37 37 40 44 46 48 49 49 50 51 52 52 52 53 54 54 54 54 55 55 56 56 56 55 54 53 51 49 48 45
31 31 32 32 33 33 33 33 33 34 34 34 34 34 34 35 36 35 31 32 37 38 37 39 45 52 54 52 50 43 36 34 35 36 39 44 47 48 49 50 50 51 52 52 53 53 53 53 53 53 54 54 54 54 54 53 53 52 51 50 48 46 44
32 33 33 33 33 34 34 34 33 34 35 35 34 34 34 35 36 37 36 37 40 43 46 50 55 57 57 53 46 39 35 35 37 39 43 45 46 47 49 50 50 51 51 51 52 52 52 52 52 53 53 52 52 51 50 50 50 49 48 47 44 42 40
31 32 32 33 33 33 33 34 34 35 36 37 36 35 36 37 38 39 41 43 43 43 46 51 55 55 51 45 39 37 37 39 42 44 45 44 46 48 49 50 50 50 50 51 51 51 50 51 51 52 51 50 49 48 47 46 46 45 43 41 40 38 37
31 32 32 32 33 33 34 35 35 35 36 38 38 38 38 38 40 42 44 45 44 43 46 51 51 47 43 41 40 41 42 44 47 48 46 46 48 49 50 50 49 49 50 50 50 49 50 50 50 49 48 47 46 44 43 42 42 41 39 37 36 36 36
33 33 34 34 34 35 35 36 37 38 38 39 39 40 41 41 42 43 43 43 41 42 46 49 49 46 46 47 47 47 48 49 50 50 49 49 49 49 50 50 49 49 49 49 48 49 49 48 47 45 45 44 43 41 40 39 39 38 37 35 34 34 34
Wind_Direction
310 307 303 289 269 259 261 266 271 272 269 270 271 273 277 281 281 279 278 279 282 285 284 281 278 279 286 291 292 294 296 298 298 297 295 296 297 297 299 301 303 304 305 306 307 308 309 309 308 307 306 307 308 309 311 311 313 314 315 315 314 314 314
310 303 300 297 284 266 264 271 275 273 268 267 272 274 277 282 285 284 282 285 289 291 290 284 279 280 287 291 292 293 296 297 298 297 296 296 296 297 298 299 301 303 305 307 308 309 310 309 307 306 306 307 308 309 310 311 313 314 315 314 314 314 314
304 302 304 305 304 301 302 297 285 277 269 265 268 271 276 282 286 286 285 288 291 293 293 286 280 282 287 290 292 295 297 297 297 297 296 296 296 296 297 297 301 304 307 308 308 308 308 307 307 307 308 308 308 308 309 311 313 314 314 314 314 315 316
299 306 311 313 314 319 320 312 296 283 274 267 266 268 274 281 284 285 286 288 291 293 292 287 283 285 288 290 292 296 298 297 296 296 296 297 298 297 296 297 301 305 307 308 308 309 309 308 308 309 308 308 307 307 309 311 313 314 314 315 316 317 318
298 305 309 311 310 312 313 308 296 286 276 270 269 270 275 280 282 284 285 288 291 292 291 289 287 289 291 293 294 295 297 296 294 295 297 299 301 299 297 299 301 304 308 310 310 310 309 309 309 308 307 306 305 306 309 312 314 315 315 316 317 318 319
299 302 303 305 308 308 307 301 294 287 277 270 270 273 277 279 281 283 285 287 290 291 291 290 290 292 295 297 297 296 296 295 294 295 298 301 301 299 298 301 304 307 310 311 310 310 310 309 308 307 306 304 305 307 310 312 314 314 315 316 317 318 319
299 298 299 303 306 306 302 297 293 288 279 272 271 273 276 277 280 282 285 286 288 290 291 291 291 293 296 298 298 296 294 293 294 296 297 299 298 297 299 303 308 309 309 310 312 311 310 309 308 306 305 306 307 308 310 311 312 313 315 317 318 319 319
295 294 297 301 302 301 297 294 293 290 284 278 275 276 277 279 281 282 284 285 287 290 291 290 291 292 294 296 296 294 293 294 295 294 294 296 296 296 300 305 309 310 310 312 313 311 309 308 307 306 306 307 308 308 309 310 313 316 318 319 319 319 320
290 292 295 297 298 298 294 290 291 290 288 285 283 283 283 284 284 285 285 286 288 289 289 289 290 291 292 293 293 293 293 294 292 291 294 295 294 297 301 304 308 311 311 312 311 309 307 306 305 305 305 306 307 308 310 312 316 319 319 319 319 320 321
292 294 296 297 297 297 295 290 288 289 291 291 288 287 288 289 289 288 287 286 287 287 287 287 287 288 289 289 290 292 292 292 291 293 295 293 291 296 299 302 306 309 309 309 308 307 305 304 303 303 303 304 306 309 311 315 318 319 319 320 321 321 321
293 295 296 297 296 296 295 291 287 288 292 293 292 290 292 294 293 291 287 284 285 285 284 284 285 286 286 286 288 289 290 291 293 294 294 291 291 297 300 301 305 306 306 307 306 304 301 300 300 300 302 305 307 310 312 316 319 320 320 321 321 321 321
293 296 296 293 294 295 290 281 281 286 291 294 293 292 293 296 296 293 288 284 282 282 282 282 284 285 284 284 285 286 289 292 294 294 292 290 294 298 300 302 304 304 305 305 303 301 299 299 300 301 303 306 308 310 313 317 320 321 322 322 321 320 319
297 299 294 287 287 290 286 281 284 287 289 291 292 294 296 298 297 294 290 285 281 280 280 282 283 283 281 281 283 286 290 293 294 293 289 290 295 297 298 301 303 302 302 301 300 300 300 301 302 304 305 307 308 311 315 318 320 321 321 320 319 319 318
297 298 297 289 284 286 287 290 294 292 291 292 295 299 300 299 298 295 290 286 282 280 280 281 281 279 279 281 284 288 290 290 291 290 287 289 293 294 295 299 300 299 299 299 299 301 302 304 306 307 308 309 310 313 316 318 319 319 319 319 318 318 317
292 295 300 300 296 294 290 290 292 293 294 297 301 303 302 300 298 295 290 286 283 281 279 278 278 277 279 283 286 287 285 285 287 287 287 290 290 291 295 297 297 297 297 298 300 302 304 307 309 310 310 310 312 315 317 317 317 317 318 317 317 317 315
290 295 298 296 296 294 289 287 289 291 292 297 301 301 299 299 298 295 291 287 284 282 278 277 277 279 283 285 282 280 279 281 284 285 287 289 290 292 295 295 294 295 297 298 300 302 306 310 314 314 313 313 314 315 315 315 315 316 315 315 316 316 315
292 296 293 288 290 293 290 286 287 290 293 295 296 297 297 297 296 294 291 288 285 283 280 278 280 282 282 278 275 275 277 279 282 285 287 288 290 292 293 292 294 295 296 298 300 303 309 315 316 315 315 314 314 313 313 312 312 312 312 313 314 315 315
290 290 287 286 293 299 296 291 289 292 294 293 293 295 296 295 293 292 289 286 284 281 279 279 279 278 276 274 275 275 276 278 281 284 286 287 289 290 291 292 294 296 298 299 302 307 314 317 316 315 316 315 313 312 311 309 309 309 309 310 313 315 315
285 285 288 293 298 301 299 294 290 291 292 292 292 293 294 293 291 289 286 284 282 279 276 274 273 273 273 274 275 275 275 278 280 282 285 286 288 289 291 293 295 298 300 301 305 312 317 316 314 314 314 313 311 311 310 308 307 306 305 308 311 314 315
282 286 293 296 297 298 296 290 287 289 289 289 291 292 293 291 288 285 283 281 278 275 273 272 272 271 271 271 272 274 276 278 279 281 283 285 287 289 291 294 297 300 302 305 310 316 317 317 317 317 318 317 315 314 313 312 310 305 302 305 309 312 313
283 287 290 291 292 293 289 284 285 288 289 291 293 292 290 288 284 281 278 276 275 273 272 271 270 269 268 269 270 273 275 277 278 280 282 284 287 290 293 296 299 302 304 309 314 317 318 320 322 322 322 320 317 317 318 316 313 307 300 301 306 309 311
281 282 284 287 289 288 285 283 285 287 289 292 293 291 288 285 280 277 275 273 272 271 270 270 269 269 269 270 270 271 273 275 277 280 283 286 289 292 295 297 301 304 307 311 315 317 318 319 320 320 319 316 313 317 319 316 312 307 299 298 304 308 308
277 280 284 287 288 287 285 284 285 287 289 291 290 289 287 282 278 275 273 272 270 268 267 267 268 269 271 272 272 272 274 276 280 283 287 289 291 294 297 299 303 307 308 309 311 314 317 319 318 318 318 315 312 317 320 316 310 306 300 299 305 309 307
277 281 285 286 285 284 284 285 286 288 289 289 288 287 285 282 280 278 275 272 268 265 263 262 264 267 270 272 274 275 278 282 285 288 290 291 294 296 298 300 303 306 305 303 307 312 317 319 319 319 321 316 311 315 320 315 309 305 300 300 306 310 309
276 279 280 279 280 283 283 284 286 286 286 286 285 285 285 285 286 283 278 272 265 261 260 260 263 268 270 272 275 279 284 288 290 291 292 293 295 297 299 301 302 302 300 299 303 310 315 317 316 318 321 316 309 313 317 311 304 300 294 295 306 315 314
273 275 277 277 278 281 281 281 282 283 283 284 285 285 286 290 290 283 275 268 261 256 256 257 260 264 268 273 279 285 289 290 290 291 291 292 295 296 297 299 300 300 298 297 301 307 312 314 314 314 316 314 310 314 316 308 299 297 291 292 309 321 318
272 274 277 277 277 279 279 279 281 282 282 282 284 284 286 294 294 282 271 267 260 249 247 252 257 264 269 275 282 286 287 286 285 286 288 290 292 293 294 296 297 296 295 297 301 305 308 310 311 311 312 313 312 314 315 307 301 299 294 295 311 319 316
272 274 274 274 274 275 277 278 279 279 279 279 281 283 287 295 298 287 275 264 250 242 246 253 258 265 272 276 280 281 280 280 281 283 286 288 290 291 292 293 293 293 293 296 300 303 305 307 308 309 311 312 311 312 312 308 303 299 293 295 304 310 311
273 273 272 271 272 275 275 276 277 276 277 279 281 286 291 297 303 299 279 249 238 250 263 264 263 267 273 276 280 282 279 279 281 283 285 287 288 289 290 291 291 292 293 295 299 302 304 305 306 308 309 309 309 309 309 308 306 301 298 298 300 303 305
270 269 269 270 273 276 275 275 276 276 278 281 282 288 294 299 308 309 274 240 244 262 270 266 263 264 274 285 289 288 283 278 278 280 282 285 286 287 290 291 292 292 293 295 298 300 302 303 305 306 307 307 307 307 307 307 306 304 302 301 300 301 303
268 267 269 272 274 275 274 274 275 276 278 281 282 287 291 295 307 312 276 245 246 258 271 274 264 263 291 303 300 295 286 278 276 279 280 282 285 288 292 295 296 296 295 296 298 299 300 303 304 305 306 306 306 306 305 305 304 303 302 302 302 303 304
270 271 274 275 275 276 276 276 278 278 280 282 283 285 289 292 303 310 284 254 251 263 275 272 257 267 297 304 300 297 289 280 277 278 280 285 291 294 297 299 299 298 297 297 299 301 302 305 306 306 306 305 304 304 303 303 302 302 303 303 304 304 305
275 276 278 278 277 278 279 280 281 281 281 283 282 284 289 292 298 306 291 262 256 263 267 261 265 284 299 302 301 299 290 280 278 280 285 292 297 297 298 299 299 298 298 300 302 303 305 306 306 305 304 303 303 302 301 301 302 302 303 304 304 305 305
277 277 278 279 279 280 280 281 282 282 282 284 285 286 290 291 293 298 293 271 260 262 267 275 286 293 296 297 298 296 288 280 281 286 292 296 296 295 296 297 298 299 300 301 302 303 304 303 303 302 302 301 301 300 300 301 302 302 303 303 304 305 303
273 273 274 275 276 278 279 280 282 283 284 286 287 288 290 290 290 291 291 284 277 275 276 281 286 287 288 290 291 288 283 282 285 290 294 294 293 293 295 296 297 298 299 299 300 301 301 301 301 301 301 300 300 301 302 303 304 304 305 304 303 302 298
272 272 272 273 274 276 278 279 281 283 284 286 288 288 288 289 290 290 290 291 291 289 285 283 282 281 282 285 285 282 281 284 288 292 294 293 293 295 295 296 297 297 298 299 300 300 301 302 301 301 301 301 302 303 304 306 307 307 307 305 302 299 297
274 274 274 275 276 278 280 281 282 283 284 286 288 289 289 289 290 290 290 291 292 291 287 283 280 279 282 285 285 284 285 288 291 294 295 295 295 296 296 296 297 298 298 299 300 301 301 302 301 301 301 302 303 304 306 309 311 310 307 304 302 300 299
274 273 274 275 277 279 281 282 283 284 284 285 285 287 289 289 289 289 289 290 289 287 283 280 280 283 285 286 287 288 290 292 294 295 295 295 295 295 296 297 298 298 298 299 300 301 301 301 300 300 300 302 303 304 306 311 313 311 307 304 303 302 301